Regional Weather Roundup
Issued by NWS

Home | Current Version | Previous Version | Graphics & Text | Print | Product List | Glossary On
Versions: 1 2 3 4 5 6 7 8 9 10 11 12 13 14 15 16 17 18 19 20 21 22 23 24 25 26 27 28 29 30 31 32 33 34 35 36 37 38 39 40 41 42 43 44 45 46 47 48 49 50
000
ASUS43 KMPX 221801
RWRMN
WEATHER ROUNDUP FOR MINNESOTA
NATIONAL WEATHER SERVICE TWIN CITIES/CHANHASSEN MN
100 PM CDT FRI MAY 22 2015


NOTE: "FAIR" INDICATES FEW OR NO CLOUDS BELOW 12,000 FEET WITH NO
SIGNIFICANT WEATHER AND/OR OBSTRUCTIONS TO VISIBILITY. N/A MEANS
CURRENT SKY AND/OR WEATHER CONDITIONS ARE NOT AVAILABLE.

MNZ060>063-068>070-221900-
   Twin Cities Metro

CITY           SKY/WX    TMP DP  RH WIND       PRES   REMARKS
TWIN CITIES    SUNNY     70  34  26 VRB3      30.22S
6HR MIN TEMP:  51; 6HR MAX TEMP:  71;

ST PAUL        SUNNY     70  35  27 VRB5      30.22F
CRYSTAL        SUNNY     71  33  24 W6        30.21F
LAKEVILLE      SUNNY     68  36  30 CALM      30.22S
EDEN PRAIRIE   SUNNY     71  35  26 VRB3      30.21S
6HR MIN TEMP:  49; 6HR MAX TEMP:  71;

SOUTH ST PAUL  SUNNY     69  33  26 CALM      30.22S
LAKE ELMO      FAIR      68  36  30 CALM      30.23F
$$
MNZ001>005-007-008-013>017-022>024-027-028-221900-
   Northwest Minnesota

CITY           SKY/WX    TMP DP  RH WIND       PRES   REMARKS
BEMIDJI        SUNNY     69  34  27 W7        30.18S
HALLOCK        SUNNY     73  39  29 SW10      30.13F
ROSEAU         SUNNY     70  39  32 SW12      30.14F
WARROAD        SUNNY     70  39  32 SW7       30.14F
THIEF RVR FALL SUNNY     70  34  26 CALM      30.18S
CROOKSTON      SUNNY     72  36  26 W5        30.18S
FOSSTON        SUNNY     72  43  35 CALM      30.19S
DETROIT LAKES  SUNNY     68  34  28 SW7       30.22R
MOORHEAD       SUNNY     70  37  30 CALM      30.21S
PARK RAPIDS    SUNNY     71  31  22 W6        30.20S
MAHNOMEN       FAIR      68  33  27 CALM      30.19S
$$
MNZ006-009>011-018-025>026-221900-
   North Central Minnesota

CITY           SKY/WX    TMP DP  RH WIND       PRES   REMARKS
BAUDETTE       SUNNY     70  36  28 SE5       30.15F
FLAG ISLAND    SUNNY     57  43  58 S15       30.12F
INTL FALLS     SUNNY     68  28  22 VRB5      30.15F
6HR MIN TEMP:  37; 6HR MAX TEMP:  70;

WASKISH        SUNNY     64  43  45 CALM      30.18F
BIG FORK       SUNNY     70  34  26 S5        30.18S
LONGVILLE      SUNNY     68  34  28 SW7       30.20S
GRAND RAPIDS   SUNNY     64  30  27 W3        30.20S
CRANE LAKE     SUNNY     64  27  24 N5        30.18F
COOK           SUNNY     66  32  28 SW3       30.18F
WALKER         FAIR      67  33  27 E5        30.19S
$$
MNZ012-019>021-037-221900-
   Northeast Minnesota

CITY           SKY/WX    TMP DP  RH WIND       PRES   REMARKS
DULUTH         SUNNY     67  33  28 SW7       30.19F
6HR MIN TEMP:  47; 6HR MAX TEMP:  67;

ELY            SUNNY     63  27  25 NW7       30.18F
HIBBING        SUNNY     68  29  23 VRB7      30.18F
EVELETH        SUNNY     64  30  27 CALM      30.20S
DULUTH HARBOR  SUNNY     50  37  62 NE5       30.22S
TWO HARBORS    SUNNY     63  39  42 SE6       30.19F
SILVER BAY     SUNNY     59  32  36 SE7       30.19F
GRAND MARAIS     N/A     43  34  70 VRB3      30.24S
G MARAIS ARPRT SUNNY     54  27  35 S7        30.20F
$$
MNZ029>031-032-039>041-046>048-054>057-064-221900-
   West Central Minnesota

CITY           SKY/WX    TMP DP  RH WIND       PRES   REMARKS
FERGUS FALLS   SUNNY     70  36  28 NE6       30.21S
WHEATON        SUNNY     70  34  26 CALM      30.22S
MORRIS         SUNNY     72  36  26 S5        30.20S
ALEXANDRIA     SUNNY     68  34  28 SW7       30.23F
ELBOW LAKE     FAIR      69  38  31 S5        30.21S
WADENA         SUNNY     68  36  30 CALM      30.20F
GLENWOOD       SUNNY     68  36  30 NW3       30.23S
APPLETON       SUNNY     73  34  23 E6        30.20S
BENSON         SUNNY     70  30  23 SE3       30.22R
ORTONVILLE     SUNNY     72  27  18 N3        30.21S
MADISON        SUNNY     72  34  25 CALM      30.20S
WILLMAR        FAIR      70  34  26 CALM      30.23S
$$
MNZ033>034-036-042>043-049>051-058-059-221900-
   Central Minnesota

CITY           SKY/WX    TMP DP  RH WIND       PRES   REMARKS
ST CLOUD       SUNNY     69  35  28 W7        30.22S
6HR MIN TEMP:  44; 6HR MAX TEMP:  69;

SAUK CENTRE    FAIR      68  34  28 SE3       30.22F
PAYNESVILLE    SUNNY     65  33  30 E6        30.23S
PINE RIVER     SUNNY     70  39  32 S5        30.23S
BRAINERD       SUNNY     68  30  24 W6        30.21F
STAPLES        SUNNY     70  30  23 W5        30.21S
LONG PRAIRIE   FAIR      66  36  32 CALM      30.23S
LITTLE FALLS   SUNNY     68  32  26 SW5       30.23S
LITCHFIELD     SUNNY     70  36  28 CALM      30.23S
BUFFALO        SUNNY     68  35  29 W5        30.24S
MAPLE LAKE     SUNNY     69  39  32 E5        30.24S
$$
MNZ037-044-045-052-053-221900-
   East Central Minnesota

CITY           SKY/WX    TMP DP  RH WIND       PRES   REMARKS
PRINCETON      SUNNY     72  36  26 CALM      30.23S
MORA           SUNNY     64  34  32 CALM      30.24S
CAMBRIDGE      SUNNY     70  45  40 NE3       30.21S
RUSH CITY      SUNNY     67  33  29 CALM      30.23S
MOOSE LAKE     SUNNY     68  34  28 CALM      30.19S
HINCKLEY       FAIR      68  36  30 S6        30.22S
CLOQUET        SUNNY     66  25  20 CALM      30.20S
MCGREGOR       SUNNY     66  32  28 W5        30.21S
$$
MNZ071>073-080-081-089-090-097-098-221900-
   Southwest Minnesota

CITY           SKY/WX    TMP DP  RH WIND       PRES   REMARKS
MONTEVIDEO     SUNNY     73  36  25 SE5       30.22S
GRANITE FALLS  SUNNY     72  32  23 S6        30.22S
CANBY          SUNNY     71  33  25 NE3       30.21F
MARSHALL       SUNNY     72  34  25 CALM      30.21S
REDWOOD FALLS  SUNNY     72  33  24 CALM      30.21S
OLIVIA         SUNNY     68  34  28 SE9       30.21S
PIPESTONE      MOSUNNY   70  37  30 S7        30.21S
WINDOM         SUNNY     72  28  20 CALM      30.22S
WORTHINGTON    SUNNY     70  34  26 W5        30.22S
JACKSON        SUNNY     72  30  21 W3        30.23S
TRACY          SUNNY     72  36  27 E3        30.22S
SLAYTON        SUNNY     71  32  23 CALM      30.23S
$$
MNZ065>067-074>077-082>085-091>093-221900-
   South Central Minnesota

CITY           SKY/WX    TMP DP  RH WIND       PRES   REMARKS
MANKATO        SUNNY     70  36  28 NE5       30.23S
NEW ULM        SUNNY     70  34  26 S3        30.22S
ST JAMES       SUNNY     72  36  26 NE5       30.23S
FAIRMONT       SUNNY     72  30  21 SE7       30.22S
GLENCOE        SUNNY     70  38  30 CALM      30.22S
FARIBAULT      SUNNY     70  34  26 CALM      30.23R
OWATONNA       SUNNY     70  27  19 SW5       30.22S
WASECA         SUNNY     70  36  28 E7        30.23S
ALBERT LEA     SUNNY     72  34  25 CALM      30.22R
$$
MNZ078>079-086>088-094>096-221900-
   Southeast Minnesota

CITY           SKY/WX    TMP DP  RH WIND       PRES   REMARKS
ROCHESTER      SUNNY     68  37  32 VRB5      30.23S
6HR MIN TEMP:  50; 6HR MAX TEMP:  69;

RED WING       SUNNY     72  30  21 CALM      30.21S
STANTON        SUNNY     71  31  22 N8        30.21S
DODGE CENTER   SUNNY     70  30  23 N7        30.23R
WINONA         SUNNY     70  34  26 W6        30.21F
AUSTIN         SUNNY     70  39  32 NW5       30.22S
PRESTON        SUNNY     68  32  26 N5        30.23R
$$
ABBREVIATIONS USED IN REMARKS
   TC - TEMPERATURES IN CELSIUS
  WCI - WIND CHILL INDEX
   HX - HEAT INDEX
  VSB - VISIBILITY
$$


USA.gov is the U.S. government's official web portal to all federal, state and local government web resources and services.